Regional Weather Roundup
Issued by NWS

Home | Current Version | Previous Version | Text Only | Print | Product List | Glossary Off
Versions: 1 2 3 4 5 6 7 8 9 10 11 12 13 14 15 16 17 18 19 20 21 22 23 24 25 26 27 28 29 30 31 32 33 34 35 36 37 38 39 40 41 42 43 44 45 46 47 48 49 50

000
ASUS43 KFSD 300910
RWRSD

WEATHER ROUNDUP FOR SOUTH DAKOTA
NATIONAL WEATHER SERVICE SIOUX FALLS SD
400 AM CDT TUE AUG 30 2016

NOTE: "FAIR" INDICATES FEW OR NO CLOUDS BELOW 12,000 FEET WITH NO
SIGNIFICANT WEATHER AND/OR OBSTRUCTIONS TO VISIBILITY.


SDZ001>005-009-010-012>017-301000-
NORTHWEST AND NORTH CENTRAL SOUTH DAKOTA

CITY           SKY/WX    TMP DP  RH WIND       PRES   REMARKS
BUFFALO          N/A     61  52  72 E7        30.20S
FAITH            N/A     58  54  86 E7        30.24R
MOBRIDGE       CLEAR     60  52  74 S3        30.20S
$$

SDZ012>016-024>037-041>051-057-063-072>074-301000-
SOUTHWEST AND SOUTH CENTRAL SOUTH DAKOTA

CITY           SKY/WX    TMP DP  RH WIND       PRES   REMARKS
RAPID CTY ARPT CLOUDY    64  62  93 N5        30.26S
PIERRE         CLOUDY    65  59  81 NE12      30.17S
CUSTER         FOG       59  57  93 NW5       30.38S VSB 3/4
ELLSWORTH AFB  CLOUDY    68  64  88 E1        30.26
PHILIP         CLEAR     63  62  97 CALM      30.20R
PINE RIDGE     CLOUDY    56  56 100 CALM      30.24S
WINNER         FAIR      67  63  87 SW3       30.17F
$$

SDZ004>011-016>023-039-040-301000-
NORTHEAST SOUTH DAKOTA

CITY           SKY/WX    TMP DP  RH WIND       PRES   REMARKS
ABERDEEN       MOCLDY    60  55  83 NE5       30.23R
WATERTOWN      CLOUDY    67  60  78 NE7       30.22S
BROOKINGS      MOCLDY    69  63  81 NE6         N/A
SISSETON         N/A     58  54  86 NW5       30.22R
$$

SDZ017-020-022-023-036>040-048>070-301000-
SOUTHEAST SOUTH DAKOTA

CITY           SKY/WX    TMP DP  RH WIND       PRES   REMARKS
SIOUX FALLS    CLOUDY    69  66  90 NE8       30.19R
HURON          CLOUDY    70  67  90 E7        30.17S
CHAMBERLAIN    CLOUDY    69  67  96 N5        30.16S
MITCHELL       CLOUDY    69  66  90 N3        30.17R
YANKTON        MOCLDY    66  63  88 E3        30.15R
$$

ABBREVIATIONS USED IN REMARKS
   TC - TEMPERATURE IN CELSIUS
  WCI - WIND CHILL INDEX
   HX - HEAT INDEX
  VSB - VISIBILITY




USA.gov is the U.S. government's official web portal to all federal, state and local government web resources and services.